Ketchikan, AK

11:21 PM AKST on December 15, 2018 (GMT -0900)
Ketchikan International

Weather History for PAKT - September, 2018

Change the Weather History Date:

Sunday, September 23, 2018

  Actual Average Record
Temperature  
Mean Temperature 55 °F -  
Max Temperature 59 °F 58 °F 70 °F (1952)
Min Temperature 51 °F 46 °F 32 °F (2003)
Degree Days  
Heating Degree Days 10    
Growing Degree Days 5 (Base 50)    
Moisture  
Dew Point 52 °F    
Average Humidity 92    
Maximum Humidity 100    
Minimum Humidity 80    
Precipitation  
Precipitation 0.12 in - - ()
Sea Level Pressure  
Sea Level Pressure 30.04 in    
Wind  
Wind Speed 6 mph (SE)    
Max Wind Speed 14 mph    
Max Gust Speed -    
Visibility 6 miles    
Events Rain    
Averages and records for this station are not official NWS values.
T = Trace of Precipitation, MM = Missing Value Source: NWS Daily Summary

Daily Weather History Graph

Daily Weather History Graph

Search for Another Location

Airport or City:

Astronomy

Sep. 23, 2018 Rise Set
Actual Time 6:34 AM AKDT 6:42 PM AKDT
Civil Twilight 5:57 AM AKDT 7:18 PM AKDT
Nautical Twilight 5:14 AM AKDT 8:02 PM AKDT
Astronomical Twilight 4:28 AM AKDT 8:47 PM AKDT
Moon 6:47 PM AKDT (9/23) 4:38 AM AKDT (9/23)
Length of Visible Light 13h 20m
Length of Day
12h 08m
Waxing Gibbous, 98% of the Moon is Illuminated
Sep 23
Waxing Gibbous
Sep 24
Full
Oct 2
Last Quarter
Oct 8
New
Oct 16
First Quarter

Hourly Weather History & Observations

Time (AKDT) Temp. Dew Point Humidity Pressure Visibility Wind Dir Wind Speed Gust Speed Precip Events Conditions
12:53 AM 53.1 °F 46.9 °F 80% 30.01 in 10.0 mi SSE 5.8 mph - N/A   Overcast
1:53 AM 52.0 °F 46.9 °F 83% 30.02 in 10.0 mi SSE 3.5 mph - N/A   Overcast
2:53 AM 52.0 °F 48.9 °F 89% 30.01 in 10.0 mi South 4.6 mph - 0.00 in   Overcast
3:53 AM 52.0 °F 48.9 °F 89% 30.02 in 5.0 mi SSE 5.8 mph - 0.02 in Rain Light Rain
4:10 AM 52.0 °F 50.0 °F 93% 30.01 in 4.0 mi SSE 6.9 mph - 0.00 in Rain Light Rain
4:27 AM 52.0 °F 50.0 °F 93% 30.01 in 2.5 mi SE 8.1 mph - 0.02 in Rain Light Rain
4:48 AM 51.8 °F 50.0 °F 94% 30.01 in 3.0 mi SSE 5.8 mph - 0.03 in Rain Light Rain
4:53 AM 52.0 °F 50.0 °F 93% 30.01 in 4.0 mi SSE 5.8 mph - 0.03 in Rain Light Rain
5:11 AM 52.0 °F 50.0 °F 93% 30.01 in 2.0 mi SE 5.8 mph - 0.01 in Rain Light Rain
5:16 AM 52.0 °F 50.0 °F 93% 30.01 in 2.0 mi SSE 5.8 mph - 0.02 in Rain Light Rain
5:53 AM 52.0 °F 51.1 °F 97% 30.01 in 3.0 mi SE 8.1 mph - 0.05 in Rain Light Rain
6:09 AM 51.8 °F 51.8 °F 100% 30.00 in 2.5 mi SE 8.1 mph - N/A Rain Light Rain
6:34 AM 51.8 °F 50.0 °F 94% 30.00 in 3.0 mi SE 8.1 mph - N/A   Overcast
6:53 AM 51.8 °F 50.0 °F 94% 30.00 in 5.0 mi SE 6.9 mph - N/A   Overcast
7:53 AM 53.6 °F 51.8 °F 94% 30.00 in 3.0 mi SE 6.9 mph - N/A Rain Light Rain
8:53 AM 53.6 °F 51.8 °F 94% 29.99 in 3.0 mi SE 10.4 mph - N/A Rain Rain
9:53 AM 53.6 °F 51.8 °F 94% 30.01 in 3.0 mi SE 13.8 mph - N/A Rain Light Rain
10:53 AM 53.6 °F 53.6 °F 100% 30.01 in 10.0 mi ESE 11.5 mph - N/A   Overcast
11:53 AM 55.4 °F 53.6 °F 94% 30.00 in 10.0 mi ESE 10.4 mph - N/A   Overcast
12:53 PM 57.2 °F 53.6 °F 88% 30.01 in 10.0 mi ESE 8.1 mph - N/A   Overcast
1:53 PM 57.2 °F 55.4 °F 94% 30.01 in 3.0 mi SE 9.2 mph - N/A Rain Light Rain
2:53 PM 57.2 °F 55.4 °F 94% 30.03 in 7.0 mi ESE 8.1 mph - N/A Rain Light Rain
3:53 PM 57.2 °F 55.4 °F 94% 30.03 in 7.0 mi SE 8.1 mph - N/A   Overcast
4:53 PM 59.0 °F 55.0 °F 87% 30.04 in 10.0 mi WNW 4.6 mph - 0.00 in   Mostly Cloudy
5:53 PM 57.0 °F 54.0 °F 89% 30.06 in 10.0 mi Calm Calm - N/A   Mostly Cloudy
6:53 PM 57.2 °F 53.6 °F 88% 30.06 in 10.0 mi SSE 4.6 mph - N/A   Overcast
7:53 PM 55.4 °F 53.6 °F 94% 30.08 in 10.0 mi SE 5.8 mph - N/A   Overcast
8:53 PM 55.4 °F 53.6 °F 94% 30.10 in 6.0 mi SSE 6.9 mph - N/A   Overcast
9:22 PM 55.0 °F 53.1 °F 93% 30.10 in 2.5 mi SSE 5.8 mph - 0.01 in Rain Light Rain
9:29 PM 55.0 °F 53.1 °F 93% 30.10 in 4.0 mi South 4.6 mph - 0.01 in Rain Light Rain
9:41 PM 55.0 °F 53.1 °F 93% 30.11 in 3.0 mi SSE 5.8 mph - 0.02 in Rain Light Rain
9:48 PM 55.4 °F 53.6 °F 94% 30.11 in 7.0 mi South 3.5 mph - 0.02 in   Overcast
9:53 PM 55.0 °F 53.1 °F 93% 30.12 in 7.0 mi South 3.5 mph - 0.02 in Rain Light Rain
10:22 PM 55.0 °F 53.1 °F 93% 30.12 in 7.0 mi SSE 4.6 mph - 0.00 in   Overcast
10:53 PM 55.0 °F 53.1 °F 93% 30.13 in 8.0 mi SE 5.8 mph - 0.00 in   Overcast
11:45 PM 55.0 °F 53.1 °F 93% 30.14 in 8.0 mi SSE 4.6 mph - N/A   Overcast
11:53 PM 55.0 °F 53.1 °F 93% 30.15 in 8.0 mi SSE 4.6 mph - N/A   Overcast